Regional Weather Roundup
Issued by NWS Charleston, SC

Current Version | Previous Version | Graphics & Text | Print | Product List | Glossary On
Versions: 1 2 3 4 5 6 7 8 9 10 11 12 13 14 15 16 17 18 19 20 21 22 23 24 25 26 27 28 29 30 31 32 33 34 35 36 37 38 39 40 41 42 43 44 45 46 47 48 49 50
000
ASUS42 KCHS 090212
RWRCHS

REGIONAL WEATHER ROUNDUP
NATIONAL WEATHER SERVICE CHARLESTON SC
900 PM EST THU DEC 08 2016

NOTE: "FAIR" INDICATES FEW OR NO CLOUDS BELOW 12,000 FEET WITH NO
SIGNIFICANT WEATHER AND/OR OBSTRUCTIONS TO VISIBILITY.

NOT ALL STATIONS ARE QUALITY CONTROLLED. USE DATA WITH CAUTION...
ESPECIALLY DEWPOINT OBSERVATIONS.

SCZ027-030-031-034>040-042>050-090300-
...SOUTHEAST SOUTH CAROLINA...

CITY           SKY/WX    TMP DP  RH WIND       PRES   REMARKS
N CHARLESTON   CLOUDY    51  37  58 N12       30.22R
WATERFRONT PRK   N/A     56  47  71 NW7       30.21R
MOUNT PLEASANT NOT AVBL
JOHNS ISLAND   FAIR      54  43  66 NW6       30.22R
PINOPOLIS        N/A     54  43  66 N15       30.14R
MONCKS CORNER  MOCLDY    52  36  54 N6        30.23R
SUMMERVILLE    FAIR      50  32  50 NW7       30.25R
BEAUFORT MCAS  PTCLDY    54  44  69 N13       30.24R
BEAUFORT ARPT  FAIR      54  45  71 N12       30.23R
HILTON HEAD IS CLOUDY    55  45  67 NW12G20   30.23S
WALTERBORO     MOCLDY    50  34  53 NW6       30.26R
ALLENDALE      FAIR      48  32  53 NW5       30.26R

...SOUTHERN MIDLANDS AND PEE DEE...

CITY           SKY/WX    TMP DP  RH WIND       PRES   REMARKS
GEORGETOWN     NOT AVBL
KINGSTREE      MOCLDY    46  32  57 CALM      30.24R
ORANGEBURG     MOCLDY    47  27  45 NW3       30.26R
BARNWELL       NOT AVBL
AIKEN          FAIR      43  32  65 NW3       30.30S
MANNING        CLOUDY    48  32  53 NW6       30.25R
COLUMBIA       MOCLDY    47  22  37 NW5       30.26R
SUMTER         MOCLDY    47  28  48 NW6       30.23R
FLORENCE       PTCLDY    48  27  44 N9        30.23R
MYRTLE BEACH   CLEAR     50  36  57 N12       30.24R
N MYRTLE BEACH PTCLDY    47  34  60 N5        30.22R

$$

GAZ063-065-086>088-099>101-113>116-118-119-134>141-150-090300-
...SOUTHEAST GEORGIA...

CITY           SKY/WX    TMP DP  RH WIND       PRES   REMARKS
SAVANNAH ARPT  CLOUDY    53  34  48 NW12G18   30.24S
HUNTER AAF     PTCLDY    55  41  60 NW16      30.21R
FORT STEWART   PTCLDY    53  30  42 NW12      30.23R
STATESBORO     MOCLDY    48  29  48 NW12G17   30.28R
SYLVANIA       CLOUDY   N/A N/A N/A N9        30.28R
CLAXTON        FAIR      49  28  44 NW7       30.28S

...CSRA...CENTRAL AND FAR SOUTHEAST GEORGIA...

CITY           SKY/WX    TMP DP  RH WIND       PRES   REMARKS
THOMSON        PTCLDY    45  28  50 CALM      30.33S
AUGUSTA-BUSH   PTCLDY    48  24  39 NW8       30.28R
AUGUSTA-DANIEL PTCLDY    47  22  37 NW7       30.28R
SWAINSBORO     FAIR      43  28  56 NW7       30.30R
VIDALIA        PTCLDY    48  32  53 NW7       30.29R
EASTMAN        FAIR      46   8  21 CALM      30.35R
HAZLEHURST     FAIR      50  28  41 NW9       30.29R
ALMA           CLOUDY    51  27  39 N9G22     30.28
WAYCROSS       PTCLDY    55  34  45 N12       30.26S
JESUP          FAIR      54  37  54 N7        30.26R
BAXLEY         FAIR      50  34  53 N5        30.27S
BRUNSWICK      PTCLDY    54  45  71 NW5       30.24R
SAINT SIMONS   PTCLDY    56  40  55 NW8       30.23R

$$

SCZ027-028-034-036>038-045-046-048>050-GAZ119-141-090300-
...LAKE AND SUPPLEMENTAL COASTAL OBSERVATIONS...

STATION/POSITION TIME  TEMP    WIND        PRES    WAVE   SWELL
                       AIR SEA DIR/SP/G            HT/PER HT/PER/DIR
                 (UTC) (F)     (DEG/KT/KT) (MB)    (FT/S) (FT/S/D)
WINYAH BAY       NOT AVBL
LAKE MURRAY      0120   45      CALM  /  5 1024.0
ACE BASIN NERRS  0045   54     310/  1     1023.0
FORT PULASKI     0142   56 62  340/ 13/ 15 1023.7R
SAPELO ISLAND    0100   56     330/  8     1023.0

$$

ANZ835-935-AMZ111-154-330-350-352-354-370-450-454-472-090300-
...C-MAN AND BUOY OBSERVATIONS...

STATION/POSITION TIME  TEMP    WIND        PRES    WAVE   SWELL
                       AIR SEA DIR/SP/G            HT/PER HT/PER/DIR
                 (UTC) (F)     (DEG/KT/KT) (MB)    (FT/S) (FT/S/D)
BUOY 41004       0150   60 73  340/ 19/ 25 1021.4R   4/ 5
BUOY 41008       0150   61 64  340/ 17/ 21 1022.5R   3/ 4   2/ 80/10
FOLLY BEACH CMAN 0100   55     310/  5/ 10 1023.2R
CAPERS NEARSHORE 0108   56 61  340/ 14/ 19 1022.5R
FRIPP NEARSHORE  0108   58 61  340/ 10/ 14 1023.0R


STATION/POSITION TIME  TEMP    WIND        PRES    WAVE   SWELL
                       AIR SEA DIR/SP/G            HT/PER HT/PER/DIR
                 (UTC) (F)     (DEG/KT/KT) (MB)    (FT/S) (FT/S/D)
5E ST. MARYS GA  0200      65                N/A     2/11
FRYING PAN BUOY  0150   56 73  350/ 21/ 27 1022.0R   5/ 5   2/100/10
BUOY 41025       0150   53 77  320/ 21/ 27 1019.9R   5/ 5   2/ 80/ 8
CAPE LOOKOUT NC  0100   50     310/ 12/ 15 1021.1R
BUOY 41002       0150   73 74  310/ 16/ 17 1017.3R   4/ 5   2/ 40/ 8
BUOY 41010       NOT AVBL
ST AUGUSTINE FL  0200   60 67  340/ 13/ 15 1023.8R


$$




USA.gov is the U.S. government's official web portal to all federal, state and local government web resources and services.